Content
SEND FEEDBACK

Daily
Averages
Monthly
Summary
Italy

TURIN, ITALY


Home > Europe > Italy
Elevation: 941 feet     Latitude: 45 13N     Longitude: 007 39E

WEATHER
 
SELECT A DAY
Number of Records: 311,390;   Date Range: 7/1/96 - 11/25/14
 
SHARE

PRINT THIS DATA

[ ← Previous Day ]
WEATHER ALMANAC - JANUARY 10, 2013
[ Next Day → ]
[ °C ]   °F
Weather ElementAverageHighLow
Temperature39 °F44.6 °F (12:20 pm)32 °F (11:20 pm)
Dewpoint35.4 °F37.4 °F (12:50 pm)30.2 °F (11:20 pm)
Humidity87.7 %100 % (4:20 am)71 % (12:20 pm)
Barometer29.91 in30.09 in (12:50 am)29.80 in (6:20 pm)
Wind Speed3.4 mph6.9 mph (10:50 am)
Weather ElementAverage
Visibility2.5 mi
Wind DirectionSE (137.6 °)

Weather ElementTotal
Precipitation---
Heating Degree Days26.7 (Base 65)
Averaged from 46 records on January 10, 2013
WEATHER CONDITIONS BREAKOUT
WIND DIRECTION BREAKOUT
WEATHER BY HOUR - JANUARY 10, 2013
[ °C ]   °F
Local TimeTemperatureDewpointHumidityBarometerVisibilityWind DirectionWind SpeedGust SpeedPrecipitationEventsConditions
12:50 AM37.4 °F35.6 °F93 %30.09 in1.2 miVariable1.2 mphMostly Cloudy
1:20 AM37.4 °F35.6 °F93 %30.06 in1.2 miVariable1.2 mphMostly Cloudy
1:50 AM37.4 °F35.6 °F93 %30.06 in1.2 miVariable1.2 mphMostly Cloudy
2:20 AM37.4 °F35.6 °F93 %30.04 in1.2 miVariable1.2 mphMostly Cloudy
2:50 AM37.4 °F35.6 °F93 %30.04 in1.2 miVariable1.2 mphMostly Cloudy
3:20 AM37.4 °F35.6 °F93 %30.04 in1.9 miSSW (210°)3.5 mphMostly Cloudy
3:50 AM37.4 °F35.6 °F93 %30.04 in2.2 miSW (230°)5.8 mphMostly Cloudy
4:20 AM35.6 °F35.6 °F100 %30.01 in2.2 miVariable2.3 mphMostly Cloudy
4:50 AM35.6 °F35.6 °F100 %30.01 in2.2 miVariable2.3 mphMostly Cloudy
5:20 AM35.6 °F35.6 °F100 %30.01 in1.6 miVariable2.3 mphMostly Cloudy
5:50 AM35.6 °F35.6 °F100 %29.95 in1.6 miSSW (200°)3.5 mphMostly Cloudy
6:20 AM35.6 °F35.6 °F100 %29.95 in1.6 miSW (230°)3.5 mphMostly Cloudy
6:50 AM35.6 °F35.6 °F100 %29.95 in1.9 miWSW (240°)5.8 mphMostly Cloudy
7:20 AM35.6 °F35.6 °F100 %29.95 in1.9 miSSW (210°)5.8 mphMostly Cloudy
7:50 AM35.6 °F35.6 °F100 %29.95 in1.9 miSW (230°)4.6 mphMostly Cloudy
8:20 AM35.6 °F35.6 °F100 %29.95 in1.5 miWSW (250°)4.6 mphMostly Cloudy
8:50 AM35.6 °F35.6 °F100 %29.95 in1.5 miCalmMostly Cloudy
9:20 AM37.4 °F35.6 °F93 %29.95 in1.7 miCalmMostly Cloudy
9:50 AM37.4 °F35.6 °F93 %29.95 in1.7 miSSW (210°)5.8 mphScattered Clouds
10:20 AM39.2 °F35.6 °F87 %29.95 in1.9 miSSW (200°)5.8 mphScattered Clouds
10:50 AM41.0 °F35.6 °F81 %29.95 in2.5 miSSW (210°)6.9 mphMist
11:20 AM42.8 °F35.6 °F76 %29.95 in2.5 miCalmMist
11:50 AM42.8 °F35.6 °F76 %29.92 in3.7 miCalmScattered Clouds
12:20 PM44.6 °F35.6 °F71 %29.92 in3.7 miCalmScattered Clouds
12:50 PM44.6 °F37.4 °F76 %29.92 in3.7 miSouth (180°)4.6 mph
1:20 PM44.6 °F35.6 °F71 %29.89 in4.3 miSouth (180°)4.6 mph
1:50 PM44.6 °F35.6 °F71 %29.86 in4.3 miSW (230°)4.6 mph
2:20 PM44.6 °F35.6 °F71 %29.86 inSSW (210°)3.5 mphClear
2:50 PM44.6 °F35.6 °F71 %29.86 inEast (100°)3.5 mphClear
3:20 PM44.6 °F35.6 °F71 %29.86 inEast (100°)3.5 mphClear
3:50 PM44.6 °F35.6 °F71 %29.86 inENE (60°)3.5 mphClear
4:20 PM44.6 °F37.4 °F76 %29.83 inEast (80°)3.5 mphClear
4:50 PM44.6 °F37.4 °F76 %29.83 inEast (80°)3.5 mphClear
5:20 PM42.8 °F35.6 °F76 %29.83 inENE (70°)3.5 mphClear
5:50 PM41.0 °F35.6 °F81 %29.83 inENE (60°)3.5 mphClear
6:20 PM41.0 °F35.6 °F81 %29.80 in4.3 miEast (100°)3.5 mph
6:50 PM39.2 °F35.6 °F87 %29.83 in4.3 miVariable1.2 mph
7:20 PM39.2 °F35.6 °F87 %29.80 in3.7 miNorth (10°)3.5 mph
7:50 PM37.4 °F35.6 °F93 %29.83 in3.7 miNNW (340°)3.5 mphScattered Clouds
8:20 PM37.4 °F35.6 °F93 %29.80 in3.1 miNW (310°)4.6 mphScattered Clouds
8:50 PM37.4 °F35.6 °F93 %29.80 in3.1 miWNW (300°)4.6 mphScattered Clouds
9:20 PM37.4 °F33.8 °F87 %29.80 in2.5 miWNW (300°)5.8 mphMist
9:50 PM35.6 °F33.8 °F93 %29.80 in2.5 miWNW (300°)5.8 mphMist
10:20 PM35.6 °F33.8 °F93 %29.80 in2.5 miWest (280°)4.6 mphMist
10:50 PM33.8 °F32.0 °F93 %29.80 in3.1 miWNW (300°)4.6 mphMist
11:20 PM32.0 °F30.2 °F93 %29.80 in3.1 miNW (320°)4.6 mphMist
Hourly data recorded from LIMF, located miles away from Turin, Italy







STORIES FROM OUR PARTNERS